Weather History for Moriarty, NM

Change the Weather History Date:

Wednesday, August 7, 2013

  Actual Average (KABQ) Record (KABQ)
Temperature  
Mean Temperature 66 °F 77 °F  
Max Temperature 82 °F 88 °F 100 °F (1994)
Min Temperature 51 °F 66 °F 49 °F (1911)
Degree Days  
Heating Degree Days 0 0  
Month to date heating degree days 0  
Since 1 June heating degree days 4  
Since 1 July heating degree days 0  
Cooling Degree Days 2 12  
Month to date cooling degree days 84  
Year to date cooling degree days 895  
Since 1 June cooling degree days 797  
Growing Degree Days 16 (Base 50)    
Moisture  
Dew Point 50 °F    
Average Humidity 59    
Maximum Humidity 92    
Minimum Humidity 31    
Precipitation  
Precipitation 0.00 in 0.05 in 0.97 in (1984)
Month to date precipitation 0.41  
Year to date precipitation 5.11  
Snow  
Snow 0.00 in - - ()
Month to date snowfall  
Since 1 June snowfall  
Since 1 July snowfall  
Snow Depth -    
Sea Level Pressure  
Sea Level Pressure 30.18 in    
Wind  
Wind Speed 5 mph (WSW)    
Max Wind Speed 18 mph    
Max Gust Speed 24 mph    
Visibility 10 miles    
Events Thunderstorm    
T = Trace of Precipitation, MM = Missing Value Source: NWS Daily Summary

Daily Weather History Graph

Daily Weather History Graph

Search for Another Location

Airport:

Trip Planner

Search our weather history database for the weather conditions in past years. The results will help you decide how hot, cold, wet, or windy it might be!

Date:

Astronomy

Aug. 07, 2013 Rise Set
Actual Time 6:18 AM MDT 8:00 PM MDT
Civil Twilight 5:50 AM MDT 8:28 PM MDT
Nautical Twilight 5:17 AM MDT 9:00 PM MDT
Astronomical Twilight 4:42 AM MDT 9:35 PM MDT
Moon 7:05 AM MDT (8/7) 8:15 PM MDT (8/7)
Length of Visible Light 14h 37m
Length of Day
13h 42m
New Moon, 1% of the Moon is Illuminated
Aug 7
New Moon
Aug 14
First Quarter
Aug 20
Full
Aug 28
Last Quarter
Sep 5
New

Hourly Weather History & Observations

Time (MDT) Temp. Dew Point Humidity Pressure Visibility Wind Dir Wind Speed Gust Speed Precip Events Conditions
12:15 AM 57.2 °F 49.3 °F 75% 30.20 in 10.0 mi Calm Calm - N/A   Clear
12:35 AM 58.5 °F 49.8 °F 73% 30.20 in 10.0 mi Calm Calm - N/A   Clear
12:55 AM 54.0 °F 48.4 °F 81% 30.21 in 10.0 mi WNW 6.9 mph - N/A   Clear
1:15 AM 55.6 °F 48.7 °F 78% 30.20 in 10.0 mi Calm Calm - N/A   Clear
1:35 AM 54.9 °F 49.1 °F 81% 30.20 in 10.0 mi Calm Calm - N/A   Clear
1:55 AM 55.4 °F 50.0 °F 82% 30.20 in 10.0 mi Calm Calm - N/A   Clear
2:15 AM 54.9 °F 49.1 °F 81% 30.21 in 10.0 mi Calm Calm - N/A   Clear
2:35 AM 55.0 °F 48.9 °F 80% 30.20 in 10.0 mi Calm Calm - N/A   Clear
2:55 AM 53.2 °F 48.6 °F 84% 30.20 in 10.0 mi Calm Calm - N/A   Clear
3:15 AM 53.2 °F 49.1 °F 86% 30.19 in 10.0 mi ENE 3.5 mph - N/A   Clear
3:35 AM 55.2 °F 50.5 °F 84% 30.19 in 10.0 mi NE 3.5 mph - N/A   Clear
3:55 AM 51.6 °F 48.2 °F 88% 30.19 in 10.0 mi NNE 4.6 mph - N/A   Clear
4:15 AM 52.3 °F 48.9 °F 88% 30.19 in 10.0 mi East 3.5 mph - N/A   Clear
4:35 AM 51.6 °F 48.2 °F 88% 30.19 in 10.0 mi Calm Calm - N/A   Clear
4:55 AM 51.6 °F 48.6 °F 89% 30.19 in 10.0 mi ENE 3.5 mph - N/A   Clear
5:15 AM 52.2 °F 49.3 °F 90% 30.19 in 10.0 mi NE 3.5 mph - N/A   Clear
5:35 AM 52.3 °F 49.3 °F 89% 30.20 in 10.0 mi NE 4.6 mph - N/A   Clear
5:55 AM 51.3 °F 48.9 °F 92% 30.20 in 10.0 mi Calm Calm - N/A   Clear
6:15 AM 52.2 °F 48.9 °F 89% 30.20 in 10.0 mi West 5.8 mph - N/A   Clear
6:35 AM 53.6 °F 50.4 °F 89% 30.20 in 10.0 mi West 5.8 mph - N/A   Clear
6:55 AM 53.6 °F 50.5 °F 89% 30.21 in 10.0 mi NW 3.5 mph - N/A   Clear
7:15 AM 55.8 °F 51.4 °F 85% 30.21 in 10.0 mi Calm Calm - N/A   Clear
7:35 AM 58.3 °F 52.2 °F 80% 30.22 in 10.0 mi Calm Calm - N/A   Clear
7:55 AM 60.3 °F 52.9 °F 77% 30.22 in 10.0 mi Calm Calm - N/A   Clear
8:15 AM 63.0 °F 53.4 °F 71% 30.22 in 10.0 mi Calm Calm - N/A   Clear
8:35 AM 64.4 °F 53.1 °F 67% 30.23 in 10.0 mi Calm Calm - N/A   Clear
8:55 AM 66.6 °F 52.9 °F 61% 30.23 in 10.0 mi Calm Calm - N/A   Clear
9:15 AM 68.0 °F 52.7 °F 58% 30.22 in 10.0 mi South 3.5 mph - N/A   Clear
9:35 AM 68.9 °F 53.4 °F 58% 30.22 in 10.0 mi South 5.8 mph - N/A   Clear
9:55 AM 70.3 °F 52.9 °F 54% 30.22 in 10.0 mi South 6.9 mph - N/A   Clear
10:15 AM 72.7 °F 52.3 °F 49% 30.23 in 10.0 mi South 9.2 mph - N/A   Clear
10:35 AM 73.2 °F 51.6 °F 47% 30.22 in 10.0 mi SSW 8.1 mph - N/A   Clear
10:55 AM 75.0 °F 50.7 °F 42% 30.22 in 10.0 mi South 9.2 mph - N/A   Clear
11:15 AM 75.7 °F 49.6 °F 40% 30.22 in 10.0 mi South 8.1 mph - N/A   Clear
11:35 AM 76.6 °F 49.6 °F 39% 30.21 in 10.0 mi SSW 10.4 mph 16.1 mph N/A   Clear
11:55 AM 78.8 °F 49.8 °F 36% 30.20 in 10.0 mi South 11.5 mph - N/A   Clear
12:15 PM 79.5 °F 49.1 °F 34% 30.19 in 10.0 mi SSW 10.4 mph 18.4 mph N/A   Clear
12:35 PM 80.2 °F 47.7 °F 32% 30.19 in 10.0 mi SSW 10.4 mph 18.4 mph N/A   Scattered Clouds
12:55 PM 79.3 °F 48.9 °F 34% 30.18 in 10.0 mi SSW 15.0 mph 20.7 mph N/A   Scattered Clouds
1:15 PM 80.6 °F 49.3 °F 33% 30.18 in 10.0 mi WSW 9.2 mph 19.6 mph N/A   Clear
1:35 PM 80.4 °F 49.1 °F 33% 30.17 in 10.0 mi SW 9.2 mph 18.4 mph N/A   Clear
1:55 PM 80.1 °F 49.3 °F 34% 30.17 in 10.0 mi WSW 9.2 mph - N/A   Scattered Clouds
2:15 PM 81.7 °F 49.3 °F 32% 30.17 in 10.0 mi SW 11.5 mph 18.4 mph N/A   Scattered Clouds
2:35 PM 81.5 °F 49.1 °F 32% 30.16 in 10.0 mi SSW 10.4 mph 16.1 mph N/A   Scattered Clouds
2:55 PM 80.1 °F 48.9 °F 34% 30.16 in 10.0 mi West 9.2 mph - N/A   Scattered Clouds
3:15 PM 82.8 °F 49.3 °F 31% 30.15 in 10.0 mi WSW 11.5 mph 17.3 mph N/A   Scattered Clouds
3:35 PM 82.0 °F 48.6 °F 31% 30.15 in 10.0 mi WSW 8.1 mph - N/A   Scattered Clouds
3:55 PM 79.0 °F 48.4 °F 34% 30.14 in 10.0 mi SW 9.2 mph 16.1 mph N/A   Mostly Cloudy
4:15 PM 79.0 °F 48.4 °F 34% 30.13 in 10.0 mi SW 10.4 mph - N/A   Mostly Cloudy
4:35 PM 79.5 °F 48.6 °F 34% 30.13 in 10.0 mi West 15.0 mph 18.4 mph N/A   Overcast
4:55 PM 80.2 °F 48.2 °F 32% 30.12 in 10.0 mi West 8.1 mph - N/A   Mostly Cloudy
5:15 PM 80.4 °F 48.2 °F 32% 30.12 in 10.0 mi West 11.5 mph 18.4 mph N/A   Mostly Cloudy
5:35 PM 81.0 °F 47.8 °F 31% 30.12 in 10.0 mi West 17.3 mph 24.2 mph N/A   Scattered Clouds
5:55 PM 79.9 °F 47.3 °F 32% 30.12 in 10.0 mi West 17.3 mph 20.7 mph N/A   Clear
6:15 PM 79.0 °F 47.5 °F 33% 30.12 in 10.0 mi West 17.3 mph 21.9 mph N/A   Clear
6:35 PM 76.6 °F 46.4 °F 34% 30.12 in 10.0 mi West 18.4 mph 24.2 mph N/A   Scattered Clouds
6:55 PM 75.4 °F 47.7 °F 37% 30.13 in 10.0 mi West 13.8 mph - N/A   Scattered Clouds
7:15 PM 73.6 °F 48.4 °F 41% 30.13 in 10.0 mi West 16.1 mph - N/A Thunderstorm Scattered Clouds
7:35 PM 70.5 °F 50.2 °F 48% 30.15 in 10.0 mi West 16.1 mph 24.2 mph N/A   Clear
7:55 PM 69.1 °F 50.5 °F 52% 30.16 in 10.0 mi West 9.2 mph - N/A   Clear
8:15 PM 68.2 °F 51.4 °F 55% 30.15 in 10.0 mi WNW 9.2 mph - N/A   Clear
8:35 PM 67.1 °F 52.2 °F 59% 30.16 in 10.0 mi NW 8.1 mph - N/A   Mostly Cloudy
8:55 PM 66.9 °F 51.8 °F 58% 30.16 in 10.0 mi NW 6.9 mph - N/A   Mostly Cloudy
9:15 PM 65.3 °F 51.8 °F 62% 30.16 in 10.0 mi NNW 5.8 mph - N/A   Mostly Cloudy
9:35 PM 64.4 °F 51.8 °F 64% 30.18 in 10.0 mi NNW 4.6 mph - N/A   Scattered Clouds
9:55 PM 63.3 °F 51.4 °F 65% 30.18 in 10.0 mi NW 5.8 mph - N/A   Clear
10:15 PM 61.7 °F 50.9 °F 68% 30.18 in 10.0 mi WNW 4.6 mph - N/A   Clear
10:35 PM 61.7 °F 50.7 °F 67% 30.19 in 10.0 mi Calm Calm - N/A   Clear
10:55 PM 61.5 °F 50.2 °F 66% 30.18 in 10.0 mi NW 4.6 mph - N/A   Clear
11:15 PM 60.8 °F 50.0 °F 68% 30.18 in 10.0 mi West 5.8 mph - N/A   Clear
11:35 PM 61.3 °F 50.4 °F 67% 30.18 in 10.0 mi West 5.8 mph - N/A   Clear
11:55 PM 60.1 °F 49.8 °F 69% 30.17 in 10.0 mi West 4.6 mph - N/A   Clear